Погода в Сянфани

Китай     32°03′46″N   112°08′20″E
темп.,
°C
ветер,
м/с
пор.,
м/с
влажн.,
%
обл.,
%
осадки,
мм/ч
давл.,
гПа
погр.,
м
14 апреля, ср
ср1423:00+12ссз4986100 1.1 1023433
02:00+11ссз5988100 1.6 1022446
05:00+11ссз4989100 0.1 1022347
08:00+12сз3788100 0.1 1023254
11:00+14ссз3578100 0.0 1023484
14:00+15с3465100 0.0 1020641
17:00+13з3480100 0.3 1018157
20:00+12сз2593100 1.3 1019198
15 апреля, чт
чт1523:00+11с129399 0.1 1018121
02:00+11ссз1292100 0.1 101680
05:00+11зсз2291100 0.0 101640
08:00+13сз2277100 0.0 1017233
11:00+18зсз2261100 0.0 1016735
14:00+23сз58503 0.0 10141500
17:00+25зсз36451 0.0 10131224
20:00+17с363845 0.0 101695
16 апреля, пт
пт1623:00+15сз334698 0.0 101828
02:00+14ссз3340100 0.0 101731
05:00+14ссв2235100 0.0 101715
08:00+16с0145100 0.0 101948
11:00+19зюз1138100 0.0 1021279
14:00+23з132766 0.0 10181322
17:00+24юз022978 0.0 10181155
20:00+17ю4649100 0.0 101991
17 апреля, сб
сб1723:00+15ююв4768100 0.0 1020109
02:00+13ююз2377100 0.0 102056
05:00+12вюв2377100 0.0 102339
08:00+15ссз1259100 0.0 1026189
11:00+20в3429100 0.0 10261317
14:00+22в222934 0.0 10231551
17:00+22юв3334100 0.0 10211403
20:00+16вюв3445100 0.0 102255
18 апреля, вс
вс1823:00+14ююв3459100 0.0 102269
02:00+13юв34575 0.0 102158
05:00+11юв225785 0.0 102026
08:00+15ююв3655100 0.0 1021238
11:00+15ююв2461100 0.0 1020178
14:00+16ююз1260100 0.0 1019146
17:00+14юз1175100 0.3 101851
20:00+13ю2377100 0.3 101894